Location: Wildlife_Club
(35.6000°N, 81.4330°W)
Time: 21:31:03
(UTC-04:00)

A-11 Canister half - Pass Details

Date: 17 August 2020
Orbit: 1514 x 1686 km, 47.2° (Epoch: 26 September)

Event Time Altitude Azimuth Distance (km) Brightness Sun altitude
Rises 00:43:50 0° 301° (WNW) 4,867 12.1 -39.9°
Reaches altitude 10° 00:47:05 10° 296° (WNW) 3,898 11.5 -40.1°
Enters shadow 00:53:30 38° 266° (W) 2,366 9.9 -40.4°
